Printer-friendly version

IAU Minor Planet Center

Minor Planet Center

MPEC 2004-S57 : 2004 SV26

The following Minor Planet Electronic Circular may be linked-to from your own Web pages, but must not otherwise be redistributed electronically.


Read MPEC 2004-S56 Read MPEC 2004-S58


M.P.E.C. 2004-S57                                Issued 2004 Sept. 24, 16:17 UT

     The Minor Planet Electronic Circulars contain information on unusual
         minor planets and routine data on comets.  They are published
   on behalf of Commission 20 of the International Astronomical Union by the
          Minor Planet Center, Smithsonian Astrophysical Observatory,
                          Cambridge, MA 02138, U.S.A.

                  Supported in part by the Brinson Foundation
             Prepared using the Tamkin Foundation Computer Network

                              MPC@CFA.HARVARD.EDU
          URL http://cfa-www.harvard.edu/iau/mpc.html  ISSN 1523-6714

                                   2004 SV26

Observations:
     K04S26V* C2004 09 23.35495 03 10 18.92 +12 58 15.6          20.2   ES057704
     K04S26V  C2004 09 23.36684 03 10 19.86 +12 58 25.5          20.3   ES057704
     K04S26V  C2004 09 23.37874 03 10 20.83 +12 58 37.7          20.1   ES057704
     K04S26V  C2004 09 23.39064 03 10 21.79 +12 58 47.7          19.8   ES057704
     K04S26V  C2004 09 24.16639 03 11 27.20 +13 10 13.1          19.7 R ES057J95
     K04S26V  C2004 09 24.16993 03 11 27.54 +13 10 16.1          19.2 R ES057J95
     K04S26V  C2004 09 24.17386 03 11 27.85 +13 10 19.1          19.8 R ES057J95
     K04S26V  C2004 09 24.37006 03 11 44.48 +13 13 19.3          18.9 V ES057850
     K04S26V  C2004 09 24.38513 03 11 45.69 +13 13 33.7          19.1 V ES057850
     K04S26V  C2004 09 24.40020 03 11 46.90 +13 13 46.1          19.5 V ES057850

Observer details:
704 Lincoln Laboratory ETS, New Mexico.  Observers M. Blythe, F. Shelly,
    M. Bezpalko, R. Huber, L. Manguso, D. Torres, R. Kracke, M. McCleary,
    H. Stange, A. Milner.  Measurers J. Stuart, R. Sayer, J. Evans, J. Kommers.
    1.0-m f/2.15 reflector + CCD.
850 Cordell-Lorenz Observatory, Sewanee.  Observer D. T. Durig.  0.30-m f/5.89
    Schmidt-Cassegrain + 1024 CCD.
J95 Great Shefford.  Observer P. Birtwhistle.  0.30-m f/6.3 Schmidt-Cassegrain
    + CCD.

Orbital elements:
2004 SV26
Epoch 2004 Sept. 12.0 TT = JDT 2453260.5                MPC
M 332.52053              (2000.0)            P               Q
n   0.34823627     Peri.   34.81879     +0.39875176     -0.91498677
a   2.0008754      Node    31.80988     +0.81260501     +0.32139468
e   0.3582073      Incl.    6.71272     +0.42505310     +0.24393579
P   2.83           H   18.7           G   0.15
From 10 observations 2004 Sept. 23-24.

Ephemeris:
2004 SV26                a,e,i = 2.00, 0.36, 7                   q = 1.2841
Date    TT    R. A. (2000) Decl.     Delta      r     Elong.  Phase     V
2004 09 22    03 08.36   +12 38.6    0.545    1.422   130.9    32.2    19.5
2004 10 02    03 21.83   +15 13.7    0.476    1.387   137.0    29.5    19.1
2004 10 12    03 32.77   +18 13.0    0.418    1.357   143.6    25.9    18.6
2004 10 22    03 40.42   +21 39.7    0.370    1.331   150.9    21.3    18.2
2004 11 01    03 44.41   +25 31.2    0.336    1.310   158.5    16.1    17.8
2004 11 11    03 44.76   +29 33.0    0.314    1.296   164.9    11.4    17.4
2004 11 21    03 42.71   +33 20.2    0.305    1.287   166.6    10.3    17.3
2004 12 01    03 40.82   +36 27.9    0.310    1.284   161.9    13.8    17.5
2004 12 11    03 41.78   +38 41.1    0.327    1.288   155.0    18.8    17.8
2004 12 21    03 47.75   +39 59.9    0.354    1.298   148.1    23.6    18.1
2004 12 31    03 59.43   +40 34.1    0.393    1.315   141.8    27.6    18.5
2005 01 10    04 16.12   +40 33.4    0.441    1.336   136.1    30.7    18.9
2005 01 20    04 36.77   +40 06.8    0.498    1.363   130.9    33.1    19.2
2005 01 30    05 00.09   +39 20.3    0.565    1.394   126.0    34.8    19.6
2005 02 09    05 24.93   +38 18.1    0.641    1.430   121.4    36.1    20.0
2005 02 19    05 50.52   +37 03.2    0.727    1.468   116.8    36.9    20.3
2005 03 01    06 16.21   +35 38.1    0.821    1.509   112.4    37.4    20.7
2005 03 11    06 41.59   +34 04.3    0.924    1.552   108.0    37.5    21.0
2005 03 21    07 06.45   +32 23.2    1.035    1.596   103.6    37.3    21.3
2005 03 31    07 30.63   +30 36.0    1.153    1.642    99.2    36.9    21.6
2005 04 10    07 54.04   +28 43.6    1.277    1.688    94.8    36.3    21.8

Kyle E. Smalley              (C) Copyright 2004 MPC           M.P.E.C. 2004-S57

Read MPEC 2004-S56 Read MPEC 2004-S58


Our Web policy. Index to the CBAT/MPC/ICQ pages.


Valid HTML 4.01!